www.pogodaiklimat.ru
ПОГОДА в Бендер-Ленге

Архив погоды в Бендер-Ленге (Иран)

Время
(UTC), дата
06 27.01
09 27.01
12 27.01
15 27.01
18 27.01
21 27.01
00 28.01
03 28.01
06 28.01
09 28.01
12 28.01
15 28.01
18 28.01
21 28.01
00 29.01
03 29.01
06 29.01
09 29.01
12 29.01
15 29.01
18 29.01
21 29.01
00 30.01
03 30.01
06 30.01
09 30.01
12 30.01
15 30.01
18 30.01
21 30.01
00 31.01
03 31.01
06 31.01
09 31.01
12 31.01
15 31.01
18 31.01
21 31.01
00 1.02
03 1.02
06 1.02
09 1.02
12 1.02
15 1.02
18 1.02
21 1.02
00 2.02
03 2.02
06 2.02
09 2.02
12 2.02
15 2.02
18 2.02
21 2.02
00 3.02
03 3.02
Ветер
(напр.,м/с)
Видим. Явления Облачность Т
(С)
Тd
(С)
f
(%)
Тe
(С)
Тes
(С)
Комфортность P
(гПа)
Po
(гПа)
Тmin
(С)
Tmax
(С)
R
(мм)
R24
(мм)
S
(см)
В 11 10 км 10/4 900 м
[Cb calv As op]
+14.3 +7.4 63 +12 +12 1020.5 1018.2 15.0
СВ 4 4000 м дождь 10/4 750 м
[Cb calv As op]
+12.2 +10.9 92 +10 +11 1018.4 1016.1 24.6
В 6 5000 м слаб. дождь 10/4 750 м
[Cb calv As op]
+12.7 +11.6 93 +10 +10 1017.5 1015.2 20 30.0
В 8 10 км 10/4 900 м
[Cb calv As op]
+13.5 +10.6 83 +11 +11 1018.6 1016.3 +11.9 +15.0 666 23.5
В 4 8000 м дымка 6/3 900 м
[Sc Ac trans]
+13.3 +10.4 83 +12 +12 1019.9 1017.6 20.0
СВ 4 8000 м дымка 3/0
[Ac trans]
+12.2 +9.8 85 +10 +10 1018.9 1016.6 20.0
В 4 8000 м дымка ясно +11.0 +9.0 87 +9 +9 1018.4 1016.1 20.0
С 4 8000 м дымка 4/0
[Ac trans]
+10.8 +9.0 89 +8 +8 1018.6 1016.3 +10.4 +13.5 666 20.0
С 2 12 км 3/0
[Ac trans]
+16.0 +10.5 70 +16 +22 1020.3 1018.0 20.0
ЮЗ 4 12 км 1/1 1200 м
[Cu hum]
+19.0 +11.3 61 +20 +27 1017.2 1014.9 666 10.4
З 6 12 км 1/1 900 м
[Cu hum]
+19.7 +12.0 61 +21 +22 комфорт 1015.7 1013.4
СЗ 3 10 км ясно +16.8 +10.4 66 +17 +17 1016.5 1014.2 +10.8 +20.5
СЗ 2 10 км ясно +14.7 +8.1 65 +14 +14 1017.3 1015.0
С 3 10 км ясно +13.7 +8.7 72 +13 +13 1017.0 1014.7
С 4 10 км ясно +14.0 +6.0 59 +13 +13 1016.3 1014.0
СВ 2 10 км ясно +12.5 +8.2 75 +12 +12 1016.9 1014.6 +10.0 +16.8
В 4 12 км ясно +17.0 +11.9 72 +17 +21 1019.0 1016.7
ЮВ 4 14 км ясно +19.0 +8.9 52 +20 +27 1016.6 1014.3
Ю 3 14 км ясно +20.1 +11.8 59 +22 +25 комфорт 1014.8 1012.5
З 2 10 км ясно +17.5 +12.5 72 +18 +18 1015.8 1013.5 +12.5 +20.5 666
С 3 10 км ясно +15.5 +11.8 79 +15 +15 1016.7 1014.4
С 3 10 км ясно +14.5 +11.5 82 +14 +14 1015.6 1013.3
С 6 8000 м дымка ясно +13.6 +10.3 80 +11 +11 1015.5 1013.2
СВ 3 8000 м дымка ясно +12.9 +10.2 84 +12 +12 1017.7 1015.4 +12.1 +17.5 666
СВ 2 10 км ясно +18.4 +11.2 63 +19 +26 1020.3 1018.0
ЮВ 3 8000 м мгла 1/1 1050 м
[Cu hum]
+19.8 +12.1 61 +22 +30 комфорт 1017.9 1015.6 666
Ю 3 7000 м мгла 1/1 900 м
[Cu hum]
+20.5 +13.6 65 +23 +25 комфорт 1017.0 1014.7
З 2 7000 м мгла ясно +18.5 +13.8 74 +20 +20 1017.7 1015.4 +12.9 +21.4 666
С 2 7000 м дымка ясно +16.1 +13.4 84 +16 +16 1018.5 1016.2
С 3 6000 м дымка ясно +14.5 +12.7 89 +14 +14 1018.4 1016.1
СВ 3 6000 м дымка ясно +14.3 +12.7 90 +13 +13 1017.7 1015.4
В 3 4000 м дымка ясно +13.3 +13.1 99 +12 +12 1018.4 1016.1 +12.8 +18.5 666
В 6 5000 м мгла ясно +18.3 +13.9 76 +18 +21 1019.8 1017.5
В 6 6000 м мгла ясно +20.7 +14.9 69 +23 +28 комфорт 1017.6 1015.3 666
В 4 6000 м мгла ясно +21.5 +15.3 68 +25 +27 комфорт 1016.0 1013.7
В 3 6000 м мгла ясно +19.3 +15.4 78 +21 +21 комфорт 1016.3 1014.0 +13.3 +21.8
В 5 6000 м дымка ясно +18.7 +15.1 80 +19 +19 1016.8 1014.5
В 3 6000 м дымка ясно +18.5 +15.6 83 +19 +19 1016.7 1014.4
В 4 5000 м дымка ясно +17.5 +15.5 88 +17 +17 1015.8 1013.5
В 4 4000 м дымка ясно +17.5 +15.6 89 +17 +17 1017.0 1014.7 +13.3 +19.3 666
В 6 6000 м мгла ясно +20.4 +15.5 73 +23 +26 комфорт 1018.6 1016.4
В 5 7000 м мгла 3/3 900 м
[Cu hum]
+22.6 +15.4 64 +27 +31 душно 1017.2 1014.9 666
ЮВ 3 7000 м мгла 1/1 900 м
[Cu hum]
+23.2 +15.8 63 +28 +30 душно 1015.6 1013.3
СВ 2 8000 м мгла ясно +20.8 +16.0 74 +25 +25 комфорт 1016.3 1014.1 +17.5 +23.9 666
штиль 0 7000 м дымка ясно +18.6 +15.7 83 +19 +19 1017.6 1015.3
СВ 3 7000 м мгла 3/0
[Ac trans]
+18.1 +13.7 75 +18 +18 1016.9 1014.7
В 3 7000 м дымка ясно +18.3 +14.9 81 +19 +19 1015.1 1012.9
В 3 7000 м дымка 6/3 1200 м
[Sc Ac As]
+18.8 +15.4 81 +20 +20 1015.6 1013.4 +17.4 +20.8 666
В 6 8000 м мгла 5/3 750 м
[Cu hum Ac As]
+21.4 +16.8 75 +25 +27 комфорт 1017.5 1015.3
ЮВ 3 7000 м мгла 4/4 900 м
[Cu hum Ac As]
+22.7 +17.4 72 +28 +34 душно 1017.0 1014.7 666
ЮЗ 4 6000 м мгла ясно +23.3 +17.0 68 +28 +30 душно 1015.2 1012.9
штиль 0 6000 м дымка ясно +21.0 +17.4 80 +25 +25 комфорт 1016.5 1014.2 +18.8 +24.2 666
С 2 6000 м дымка 1/0
[Ac trans]
+19.8 +16.7 82 +23 +23 комфорт 1017.0 1014.8
С 3 6000 м дымка ясно +19.6 +16.4 82 +22 +22 комфорт 1016.6 1014.4
В 2 6000 м дымка 5/3 1200 м
[Sc Ac As]
+17.9 +16.9 94 +18 +18 1016.0 1013.7
СВ 3 6000 м дымка 5/3 1200 м
[Sc Ac As]
+18.8 +16.3 85 +20 +20 1017.1 1014.8 +17.7 +21.0
Местоположение метеостанции Бендер-Ленге (Иран): широта 26.58 долгота 54.83 высота над уровнем моря 14 м.
В архиве по умолчанию представлена погода в Бендер-Ленге за последнюю неделю. Архивные данные за месяц целиком и за предыдущие месяцы, начиная с января 2011 года, Вы можете получить, выбрав интересующий диапазон дат из раскрывающегося списка и нажав кнопку "Найти!".
*Определитесь, кто Вы:
Внимание! Время в таблицах - всемирное. Для получения местного времени необходимо прибавить поправку, которая равна 3.5 ч.
Смотрите также архив погоды в соседних городах и на ближайших метеорологических станциях:
Партнеры нашего сайта:      
Пояснения к столбцам:
  • Ветер - указаны скорость ветра в м/с - средняя за 10 мин, порывы в срок и между сроками (в фигурных скобках) и направление, откуда дует ветер: С - северный,
  • СВ - северо-восточный, В - восточный, ЮВ - юго-восточный, Ю - южный, ЮЗ - юго-западный, З - западный, СЗ - северо-западный.
  • Видимость - горизонтальная дальность видимости в метрах или километрах. При видимости от 1 до 10 км при отсутствии осадков обычно наблюдается дымка, при ухудшении видимости до 1 км и менее - туман. В сухую погоду видимость может ухудшаться дымом, пылью или мглою.
  • Явления - указаны атмосферные явления, наблюдавшиеся в срок или в последний час перед сроком; фигурными скобками обозначены явления, наблюдавшиеся между сроками (за 1-3 часа до срока); квадратными скобками обозначены град или гололедные отложения с указанием их диаметра в мм.
  • Облачность - указаны через наклонную черту общая и нижняя облачность в баллах и высота нижней границы облаков в метрах; квадратными скобками обозначены формы облаков: Ci - перистые, Cs - перисто-слоистые, Cc - перисто-кучевые, Ac - высококучевые, As - высокослоистые, Sc - слоисто-кучевые, Ns - слоисто-дождевые, Cu - кучевые, Cb - кучево-дождевые. Подробнее классификацию облаков см. в Атласе облаков (PDF).
  • T - Температура воздуха - температура, измеренная на высоте 2 м над землей.
  • Td - Температура точки росы - температура, при понижении до которой содержащийся в воздухе водяной пар достигнет насыщения.
  • f - Относительная влажность воздуха - влажноcть воздуха, измеренная на высоте 2 м над землей.
  • Te - Эффективная температура - температура, которую ощущает одетый по сезону человек в тени. Характеристика душности погоды. При расчете учитывается влияние влажности воздуха и скорости ветра на теплоощущения человека.
  • Tes - Эффективная температура на солнце - температура, которую ощущает человек, с поправкой на солнечный нагрев. Характеристика знойности погоды. Зависит от высоты солнца над горизонтом, облачности и скорости ветра. Ночью, в пасмурную погоду, а также при ветре 12 м/с и более поправка равна нулю.
  • P - Атмосферное давление - приведенное к уровню моря атмосферное давление.
  • Po - Атмосферное давление - измеренное на уровне метеостанции атмосферное давление.
  • Tmin - Минимальная температура - минимум температуры воздуха на высоте 2 м над землей.
  • Tmax - Максимальная температура - максимум температуры воздуха на высоте 2 м над землей.
  • R - Количество осадков - Количество выпавших осадков за период времени, мм. При наведении курсора мыши на число - период времени, за который выпало указанное количество осадков.
  • R24 - Количество осадков - Количество выпавших осадков за 24 часа, мм.
  • S - Снежный покров - Высота снежного покрова, см. При наведении курсора мыши на число - состояние снежного покрова и степень покрытия местности в баллах.